KE9LZ-9 Weather Reports


Display with metric or nautical units.
time (UTC)temp
F
wind
direction
speed
MPH
gust
MPH
rain 1hr
in
rain 24hr
in
rain mn
in
humidity
%
barometer
mb
20260507082003 34 335 0.0 1.0 0.00 0.00 0.00 72 1012.2
20260507081003 34 330 0.0 1.0 0.00 0.00 0.00 71 1012.0
20260507075004 35 342 0.0 1.0 0.00 0.00 0.00 68 1012.1
20260507074003 35 332 0.0 1.0 0.00 0.00 0.00 69 1012.3
20260507073004 35 352 0.0 1.0 0.00 0.00 0.00 68 1012.3
20260507072004 35 32 0.0 1.0 0.00 0.00 0.00 69 1012.4
20260507071004 35 52 1.0 1.0 0.00 0.00 0.00 67 1012.5
20260507070009 35 354 0.0 1.0 0.00 0.00 0.00 67 1012.6
20260507065004 36 30 0.0 1.0 0.00 0.00 0.00 69 1012.8
20260507064003 36 24 0.0 1.0 0.00 0.00 0.00 68 1012.8
20260507063003 36 19 0.0 1.0 0.00 0.00 0.00 67 1013.1
20260507060004 37 327 0.0 1.0 0.00 0.00 0.00 64 1013.2
20260507055004 37 1 0.0 1.0 0.00 0.00 0.00 62 1013.3
20260507054003 37 343 0.0 1.0 0.00 0.00 0.00 65 1013.4
20260507053004 37 10 0.0 1.0 0.00 0.00 0.00 64 1013.6
20260507051004 37 330 0.0 1.0 0.00 0.00 0.00 64 1013.6
20260507050004 37 32 0.0 0.0 0.00 0.00 0.00 63 1013.5
20260507044004 38 346 0.0 1.0 0.00 0.00 0.00 62 1013.6
20260507043003 38 306 0.0 1.0 0.00 0.00 0.00 61 1013.6
20260507042004 38 5 0.0 1.0 0.00 0.00 0.00 58 1013.6
20260507041004 38 13 1.0 1.0 0.00 0.00 0.00 60 1013.5
20260507040004 39 0 0.0 1.0 0.00 0.00 0.00 58 1013.6
20260507031003 40 298 1.0 3.0 0.00 0.00 0.00 53 1013.6
20260507030004 41 327 2.0 5.0 0.00 0.00 0.00 52 1013.7
20260507025004 41 351 1.0 6.0 0.00 0.00 0.00 52 1013.7
20260507023003 41 264 3.0 8.0 0.00 0.00 0.00 51 1013.6
20260507022004 41 339 4.0 8.0 0.00 0.00 0.00 51 1013.6
20260507020003 41 333 3.0 10.0 0.00 0.00 0.00 51 1013.3
20260507015004 41 291 2.0 6.0 0.00 0.00 0.00 52 1013.5
20260507014004 41 346 2.0 5.0 0.00 0.00 0.00 52 1013.3
20260507013004 41 313 2.0 6.0 0.00 0.00 0.00 52 1013.3
20260507012004 42 348 2.0 3.0 0.00 0.00 0.00 51 1013.2
20260507011004 42 323 2.0 6.0 0.00 0.00 0.00 50 1013.1
20260507010004 42 14 2.0 9.0 0.00 0.00 0.00 50 1013.0
20260507005004 42 348 2.0 5.0 0.00 0.00 0.00 49 1013.1
20260507004003 43 23 2.0 6.0 0.00 0.00 0.00 49 1012.9
20260507003003 43 29 2.0 7.0 0.00 0.00 0.00 48 1012.8
20260507002004 43 341 3.0 7.0 0.00 0.00 0.00 47 1012.8
20260507001004 44 16 2.0 8.0 0.00 0.00 0.00 48 1012.5
20260507000004 44 332 3.0 8.0 0.00 0.00 0.00 46 1012.6
20260506235004 44 313 3.0 6.0 0.00 0.00 0.00 46 1012.5
20260506234004 45 8 3.0 12.0 0.00 0.00 0.00 45 1012.3
20260506232003 45 291 5.0 9.0 0.00 0.00 0.00 44 1012.1
20260506231003 45 337 3.0 9.0 0.00 0.00 0.00 44 1012.3
20260506230004 46 338 4.0 10.0 0.00 0.00 0.00 43 1012.2
20260506225004 46 285 4.0 9.0 0.00 0.00 0.00 43 1012.2
20260506223004 47 313 3.0 8.0 0.00 0.00 0.00 41 1012.1
20260506222004 47 345 3.0 9.0 0.00 0.00 0.00 41 1012.0
20260506221004 47 345 4.0 10.0 0.00 0.00 0.00 40 1012.0
20260506220004 47 33 4.0 10.0 0.00 0.00 0.00 40 1011.9
20260506215004 47 43 2.0 6.0 0.00 0.00 0.00 40 1011.9
20260506214003 46 358 4.0 6.0 0.00 0.00 0.00 40 1011.9
20260506213004 47 36 2.0 6.0 0.00 0.00 0.00 40 1011.9
20260506212004 47 26 1.0 8.0 0.00 0.00 0.00 39 1011.9
20260506210004 47 322 5.0 12.0 0.00 0.00 0.00 39 1011.8
20260506205004 47 19 3.0 9.0 0.00 0.00 0.00 39 1012.0
20260506204004 47 331 2.0 18.0 0.00 0.00 0.00 40 1011.9
20260506203004 47 331 5.0 9.0 0.00 0.00 0.00 40 1012.0
20260506202003 47 349 5.0 9.0 0.00 0.00 0.00 42 1012.0
20260506201004 47 350 3.0 12.0 0.00 0.00 0.00 43 1012.1
20260506195004 46 2 2.0 10.0 0.00 0.00 0.00 44 1012.3
20260506194004 47 351 2.0 12.0 0.00 0.00 0.00 44 1012.3
20260506193004 46 318 3.0 8.0 0.00 0.00 0.00 46 1012.2
20260506191004 46 4 5.0 14.0 0.00 0.00 0.00 47 1012.3
20260506190005 46 128 2.0 7.0 0.00 0.00 0.00 47 1012.3
20260506185004 44 321 4.0 14.0 0.00 0.00 0.00 48 1012.3
20260506184004 46 282 5.0 9.0 0.00 0.00 0.00 46 1012.3
20260506183005 45 30 2.0 8.0 0.00 0.00 0.00 48 1012.4
20260506175004 45 332 4.0 8.0 0.00 0.00 0.00 45 1012.5
20260506174004 44 283 3.0 9.0 0.00 0.00 0.00 46 1012.5
20260506172005 44 297 6.0 13.0 0.00 0.00 0.00 48 1012.7
20260506170004 43 341 3.0 12.0 0.00 0.00 0.00 50 1012.9
20260506164004 43 295 5.0 14.0 0.00 0.00 0.00 49 1013.2
20260506163004 43 264 6.0 15.0 0.00 0.00 0.00 49 1013.1
20260506162004 42 283 6.0 14.0 0.00 0.00 0.00 51 1013.2
20260506161004 42 248 5.0 9.0 0.00 0.00 0.00 52 1013.3
20260506160004 43 330 5.0 9.0 0.00 0.00 0.00 53 1013.1
20260506155004 42 228 1.0 7.0 0.00 0.00 0.00 54 1013.2
20260506154003 41 286 5.0 9.0 0.00 0.00 0.00 55 1013.1
20260506153004 41 314 3.0 13.0 0.00 0.00 0.00 55 1013.2
20260506152004 41 357 2.0 7.0 0.00 0.00 0.00 54 1013.1
20260506151004 41 315 6.0 9.0 0.00 0.00 0.00 55 1013.2
20260506150005 41 257 3.0 9.0 0.00 0.00 0.00 55 1013.1
20260506145004 40 37 3.0 6.0 0.00 0.00 0.00 56 1013.1
20260506144004 41 41 2.0 13.0 0.00 0.00 0.00 56 1012.9
20260506143005 40 358 2.0 12.0 0.00 0.00 0.00 57 1013.0
20260506142004 40 269 4.0 9.0 0.00 0.00 0.00 56 1013.1
20260506141003 41 11 2.0 6.0 0.00 0.00 0.00 58 1012.9
20260506140004 40 295 4.0 7.0 0.00 0.00 0.00 58 1012.9
20260506135004 40 0 2.0 8.0 0.00 0.00 0.00 59 1012.8
20260506134004 40 335 2.0 5.0 0.00 0.00 0.00 58 1012.8
20260506133004 39 54 1.0 7.0 0.00 0.00 0.00 60 1012.9
20260506132004 39 310 2.0 7.0 0.00 0.00 0.00 61 1012.9
20260506131004 38 15 2.0 6.0 0.00 0.00 0.00 63 1013.0
20260506130004 37 353 2.0 7.0 0.00 0.00 0.00 64 1013.1
20260506125004 37 3 2.0 6.0 0.00 0.00 0.00 65 1013.0
20260506122004 37 27 2.0 3.0 0.00 0.00 0.00 67 1012.7
20260506121004 36 56 2.0 5.0 0.00 0.00 0.00 69 1012.4
20260506120004 35 339 1.0 2.0 0.00 0.00 0.00 71 1012.4
20260506115003 35 319 1.0 3.0 0.00 0.00 0.00 72 1012.4
20260506114003 34 347 2.0 3.0 0.00 0.00 0.00 73 1012.3
20260506113003 34 333 2.0 3.0 0.00 0.00 0.00 74 1012.4
20260506112004 33 308 1.0 2.0 0.00 0.00 0.00 74 1012.2
20260506111004 33 324 0.0 1.0 0.00 0.00 0.00 77 1011.9
20260506105003 33 313 0.0 2.0 0.00 0.00 0.00 76 1011.9
20260506104003 33 311 0.0 2.0 0.00 0.00 0.00 74 1011.6
20260506103004 33 331 0.0 1.0 0.00 0.00 0.00 76 1011.6
20260506101004 33 44 0.0 1.0 0.00 0.00 0.00 76 1011.7
20260506100004 33 324 0.0 1.0 0.00 0.00 0.00 76 1011.6
20260506095004 33 29 0.0 1.0 0.00 0.00 0.00 77 1011.7
20260506093004 33 290 0.0 1.0 0.00 0.00 0.00 77 1011.7
20260506091004 33 5 0.0 0.0 0.00 0.00 0.00 76 1011.5
20260506090003 33 341 0.0 2.0 0.00 0.00 0.00 75 1011.5
20260506085003 33 43 0.0 1.0 0.00 0.00 0.00 74 1011.1
20260506084003 33 339 0.0 2.0 0.00 0.00 0.00 75 1011.4
20260506083004 33 339 0.0 2.0 0.00 0.00 0.00 73 1011.3